Tracking 19827 objects as of 21-Aug-2019
HD Live streaming from Space Station
objects crossing your sky now

ATLAS H R/B

Track ATLAS H R/B now!
10-day predictions


NORAD ID: 16592
Int'l Code: 1986-014B
Perigee: 666.2 km
Apogee: 1,369.5 km
Inclination: 63.3 °
Period: 105.3 minutes
Semi major axis: 7388 km
RCS: Unknown
Launch date: February 9, 1986
Source: United States (US)
Launch site: AIR FORCE WESTERN TEST RANGE (AFWTR)

Note: This is a ROCKET BODY
aabbcc
Your satellite tracking list
Your tracking list is empty




NASA's NSSDC Master Catalog

Two Line Element Set (TLE):
1 16592U 86014B   19232.91938582 +.00000405 +00000-0 +27678-3 0  9996
2 16592 063.3162 067.2441 0475889 117.5813 247.4394 13.66909992018935
Source of the keplerian elements: McCants